Year,Month,Day,Hour,Minute,Value (Times are PST for temperature in C)
2011,11,15,00,00,-1.50
2011,11,15,00,01,-1.50
2011,11,15,00,02,-1.50
2011,11,15,00,03,-1.60
2011,11,15,00,04,-1.60
2011,11,15,00,05,-1.60
2011,11,15,00,06,-1.60
2011,11,15,00,07,-1.60
2011,11,15,00,08,-1.60
2011,11,15,00,09,-1.60
2011,11,15,00,10,-1.70
2011,11,15,00,11,-1.70
2011,11,15,00,12,-1.70
2011,11,15,00,13,-1.70
2011,11,15,00,14,-1.70
2011,11,15,00,15,-1.70
2011,11,15,00,16,-1.70
2011,11,15,00,17,-1.70
2011,11,15,00,18,-1.70
2011,11,15,00,19,-1.70
2011,11,15,00,20,-1.70
2011,11,15,00,21,-1.60
2011,11,15,00,22,-1.60
2011,11,15,00,23,-1.60
2011,11,15,00,24,-1.60
2011,11,15,00,25,-1.70
2011,11,15,00,26,-1.70
2011,11,15,00,27,-1.70
2011,11,15,00,28,-1.70
2011,11,15,00,29,-1.70
2011,11,15,00,30,-1.70
2011,11,15,00,31,-1.70
2011,11,15,00,32,-1.70
2011,11,15,00,33,-1.70
2011,11,15,00,34,-1.70
2011,11,15,00,35,-1.70
2011,11,15,00,36,-1.70
2011,11,15,00,37,-1.70
2011,11,15,00,38,-1.70
2011,11,15,00,39,-1.70
2011,11,15,00,40,-1.70
2011,11,15,00,41,-1.70
2011,11,15,00,42,-1.70
2011,11,15,00,43,-1.70
2011,11,15,00,44,-1.70
2011,11,15,00,45,-1.70
2011,11,15,00,46,-1.80
2011,11,15,00,47,-1.70
2011,11,15,00,48,-1.70
2011,11,15,00,49,-1.70
2011,11,15,00,50,-1.70
2011,11,15,00,51,-1.70
2011,11,15,00,52,-1.70
2011,11,15,00,53,-1.80
2011,11,15,00,54,-1.80
2011,11,15,00,55,-1.80
2011,11,15,00,56,-1.80
2011,11,15,00,57,-1.80
2011,11,15,00,58,-1.80
2011,11,15,00,59,-1.80
2011,11,15,01,00,-1.80
2011,11,15,01,01,-1.80
2011,11,15,01,02,-1.80
2011,11,15,01,03,-1.80
2011,11,15,01,04,-1.80
2011,11,15,01,05,-1.80
2011,11,15,01,06,-1.80
2011,11,15,01,07,-1.80
2011,11,15,01,08,-1.80
2011,11,15,01,09,-1.90
2011,11,15,01,10,-1.90
2011,11,15,01,11,-1.90
2011,11,15,01,12,-1.80
2011,11,15,01,13,-1.80
2011,11,15,01,14,-1.80
2011,11,15,01,15,-1.80
2011,11,15,01,16,-1.80
2011,11,15,01,17,-1.80
2011,11,15,01,18,-1.80
2011,11,15,01,19,-1.80
2011,11,15,01,20,-1.80
2011,11,15,01,21,-1.80
2011,11,15,01,22,-1.90
2011,11,15,01,23,-1.90
2011,11,15,01,24,-1.90
2011,11,15,01,25,-1.90
2011,11,15,01,26,-1.90
2011,11,15,01,27,-1.90
2011,11,15,01,28,-1.90
2011,11,15,01,29,-1.90
2011,11,15,01,30,-1.90
2011,11,15,01,31,-1.90
2011,11,15,01,32,-1.90
2011,11,15,01,33,-1.90
2011,11,15,01,34,-1.90
2011,11,15,01,35,-1.90
2011,11,15,01,36,-1.90
2011,11,15,01,37,-1.90
2011,11,15,01,38,-1.90
2011,11,15,01,39,-1.90
2011,11,15,01,40,-1.90
2011,11,15,01,41,-1.90
2011,11,15,01,42,-1.90
2011,11,15,01,43,-1.90
2011,11,15,01,44,-1.90
2011,11,15,01,45,-1.90
2011,11,15,01,46,-1.90
2011,11,15,01,47,-1.90
2011,11,15,01,48,-2.00
2011,11,15,01,49,-2.00
2011,11,15,01,50,-2.00
2011,11,15,01,51,-2.00
2011,11,15,01,52,-2.00
2011,11,15,01,53,-2.10
2011,11,15,01,54,-2.10
2011,11,15,01,55,-2.10
2011,11,15,01,56,-2.10
2011,11,15,01,57,-2.10
2011,11,15,01,58,-2.10
2011,11,15,01,59,-2.10
2011,11,15,02,00,-2.10
2011,11,15,02,01,-2.10
2011,11,15,02,02,-2.20
2011,11,15,02,03,-2.20
2011,11,15,02,04,-2.20
2011,11,15,02,05,-2.20
2011,11,15,02,06,-2.20
2011,11,15,02,07,-2.30
2011,11,15,02,08,-2.30
2011,11,15,02,09,-2.30
2011,11,15,02,10,-2.30
2011,11,15,02,11,-2.30
2011,11,15,02,12,-2.30
2011,11,15,02,13,-2.30
2011,11,15,02,14,-2.30
2011,11,15,02,15,-2.30
2011,11,15,02,16,-2.30
2011,11,15,02,17,-2.30
2011,11,15,02,18,-2.40
2011,11,15,02,19,-2.40
2011,11,15,02,20,-2.40
2011,11,15,02,21,-2.40
2011,11,15,02,22,-2.40
2011,11,15,02,23,-2.40
2011,11,15,02,24,-2.40
2011,11,15,02,25,-2.40
2011,11,15,02,26,-2.40
2011,11,15,02,27,-2.30
2011,11,15,02,28,-2.30
2011,11,15,02,29,-2.30
2011,11,15,02,30,-2.30
2011,11,15,02,31,-2.30
2011,11,15,02,32,-2.30
2011,11,15,02,33,-2.30
2011,11,15,02,34,-2.30
2011,11,15,02,35,-2.20
2011,11,15,02,36,-2.20
2011,11,15,02,37,-2.20
2011,11,15,02,38,-2.20
2011,11,15,02,39,-2.20
2011,11,15,02,40,-2.20
2011,11,15,02,41,-2.20
2011,11,15,02,42,-2.20
2011,11,15,02,43,-2.20
2011,11,15,02,44,-2.20
2011,11,15,02,45,-2.20
2011,11,15,02,46,-2.20
2011,11,15,02,47,-2.20
2011,11,15,02,48,-2.20
2011,11,15,02,49,-2.30
2011,11,15,02,50,-2.30
2011,11,15,02,51,-2.30
2011,11,15,02,52,-2.30
2011,11,15,02,53,-2.30
2011,11,15,02,54,-2.30
2011,11,15,02,55,-2.30
2011,11,15,02,56,-2.30
2011,11,15,02,57,-2.30
2011,11,15,02,58,-2.30
2011,11,15,02,59,-2.30
2011,11,15,03,00,-2.30
2011,11,15,03,01,-2.30
2011,11,15,03,02,-2.30
2011,11,15,03,03,-2.30
2011,11,15,03,04,-2.30
2011,11,15,03,05,-2.30
2011,11,15,03,06,-2.30
2011,11,15,03,07,-2.30
2011,11,15,03,08,-2.30
2011,11,15,03,09,-2.30
2011,11,15,03,10,-2.30
2011,11,15,03,11,-2.30
2011,11,15,03,12,-2.30
2011,11,15,03,13,-2.30
2011,11,15,03,14,-2.30
2011,11,15,03,15,-2.30
2011,11,15,03,16,-2.30
2011,11,15,03,17,-2.30
2011,11,15,03,18,-2.30
2011,11,15,03,19,-2.30
2011,11,15,03,20,-2.30
2011,11,15,03,21,-2.30
2011,11,15,03,22,-2.30
2011,11,15,03,23,-2.30
2011,11,15,03,24,-2.30
2011,11,15,03,25,-2.30
2011,11,15,03,26,-2.30
2011,11,15,03,27,-2.30
2011,11,15,03,28,-2.30
2011,11,15,03,29,-2.30
2011,11,15,03,30,-2.30
2011,11,15,03,31,-2.30
2011,11,15,03,32,-2.30
2011,11,15,03,33,-2.30
2011,11,15,03,34,-2.30
2011,11,15,03,35,-2.30
2011,11,15,03,36,-2.30
2011,11,15,03,37,-2.30
2011,11,15,03,38,-2.30
2011,11,15,03,39,-2.30
2011,11,15,03,40,-2.30
2011,11,15,03,41,-2.30
2011,11,15,03,42,-2.30
2011,11,15,03,43,-2.40
2011,11,15,03,44,-2.40
2011,11,15,03,45,-2.40
2011,11,15,03,46,-2.40
2011,11,15,03,47,-2.40
2011,11,15,03,48,-2.40
2011,11,15,03,49,-2.40
2011,11,15,03,50,-2.40
2011,11,15,03,51,-2.40
2011,11,15,03,52,-2.40
2011,11,15,03,53,-2.40
2011,11,15,03,54,-2.40
2011,11,15,03,55,-2.40
2011,11,15,03,56,-2.40
2011,11,15,03,57,-2.40
2011,11,15,03,58,-2.40
2011,11,15,03,59,-2.40
2011,11,15,04,00,-2.40
2011,11,15,04,01,-2.40
2011,11,15,04,02,-2.40
2011,11,15,04,03,-2.50
2011,11,15,04,04,-2.50
2011,11,15,04,05,-2.50
2011,11,15,04,06,-2.50
2011,11,15,04,07,-2.50
2011,11,15,04,08,-2.50
2011,11,15,04,09,-2.50
2011,11,15,04,10,-2.50
2011,11,15,04,11,-2.50
2011,11,15,04,12,-2.50
2011,11,15,04,13,-2.50
2011,11,15,04,14,-2.50
2011,11,15,04,15,-2.50
2011,11,15,04,16,-2.50
2011,11,15,04,17,-2.50
2011,11,15,04,18,-2.50
2011,11,15,04,19,-2.50
2011,11,15,04,20,-2.50
2011,11,15,04,21,-2.60
2011,11,15,04,22,-2.60
2011,11,15,04,23,-2.60
2011,11,15,04,24,-2.60
2011,11,15,04,25,-2.60
2011,11,15,04,26,-2.60
2011,11,15,04,27,-2.60
2011,11,15,04,28,-2.60
2011,11,15,04,29,-2.60
2011,11,15,04,30,-2.60
2011,11,15,04,31,-2.60
2011,11,15,04,32,-2.60
2011,11,15,04,33,-2.60
2011,11,15,04,34,-2.60
2011,11,15,04,35,-2.60
2011,11,15,04,36,-2.60
2011,11,15,04,37,-2.60
2011,11,15,04,38,-2.60
2011,11,15,04,39,-2.60
2011,11,15,04,40,-2.60
2011,11,15,04,41,-2.60
2011,11,15,04,42,-2.60
2011,11,15,04,43,-2.60
2011,11,15,04,44,-2.60
2011,11,15,04,45,-2.70
2011,11,15,04,46,-2.70
2011,11,15,04,47,-2.70
2011,11,15,04,48,-2.70
2011,11,15,04,49,-2.70
2011,11,15,04,50,-2.80
2011,11,15,04,51,-2.80
2011,11,15,04,52,-2.80
2011,11,15,04,53,-2.80
2011,11,15,04,54,-2.80
2011,11,15,04,55,-2.80
2011,11,15,04,56,-2.80
2011,11,15,04,57,-2.80
2011,11,15,04,58,-2.70
2011,11,15,04,59,-2.70
2011,11,15,05,00,-2.70
2011,11,15,05,01,-2.70
2011,11,15,05,02,-2.70
2011,11,15,05,03,-2.70
2011,11,15,05,04,-2.70
2011,11,15,05,05,-2.70
2011,11,15,05,06,-2.70
2011,11,15,05,07,-2.70
2011,11,15,05,08,-2.70
2011,11,15,05,09,-2.70
2011,11,15,05,10,-2.70
2011,11,15,05,11,-2.70
2011,11,15,05,12,-2.70
2011,11,15,05,13,-2.70
2011,11,15,05,14,-2.70
2011,11,15,05,15,-2.70
2011,11,15,05,16,-2.70
2011,11,15,05,17,-2.70
2011,11,15,05,18,-2.70
2011,11,15,05,19,-2.70
2011,11,15,05,20,-2.70
2011,11,15,05,21,-2.70
2011,11,15,05,22,-2.70
2011,11,15,05,23,-2.70
2011,11,15,05,24,-2.70
2011,11,15,05,25,-2.70
2011,11,15,05,26,-2.70
2011,11,15,05,27,-2.70
2011,11,15,05,28,-2.70
2011,11,15,05,29,-2.70
2011,11,15,05,30,-2.70
2011,11,15,05,31,-2.70
2011,11,15,05,32,-2.70
2011,11,15,05,33,-2.70
2011,11,15,05,34,-2.80
2011,11,15,05,35,-2.80
2011,11,15,05,36,-2.80
2011,11,15,05,37,-2.80
2011,11,15,05,38,-2.80
2011,11,15,05,39,-2.80
2011,11,15,05,40,-2.80
2011,11,15,05,41,-2.80
2011,11,15,05,42,-2.80
2011,11,15,05,43,-2.80
2011,11,15,05,44,-2.80
2011,11,15,05,45,-2.80
2011,11,15,05,46,-2.80
2011,11,15,05,47,-2.80
2011,11,15,05,48,-2.80
2011,11,15,05,49,-2.80
2011,11,15,05,50,-2.80
2011,11,15,05,51,-2.80
2011,11,15,05,52,-2.80
2011,11,15,05,53,-2.80
2011,11,15,05,54,-2.80
2011,11,15,05,55,-2.80
2011,11,15,05,56,-2.80
2011,11,15,05,57,-2.80
2011,11,15,05,58,-2.80
2011,11,15,05,59,-2.80
2011,11,15,06,00,-2.80
2011,11,15,06,01,-2.80
2011,11,15,06,02,-2.80
2011,11,15,06,03,-2.70
2011,11,15,06,04,-2.70
2011,11,15,06,05,-2.70
2011,11,15,06,06,-2.70
2011,11,15,06,07,-2.70
2011,11,15,06,08,-2.70
2011,11,15,06,09,-2.70
2011,11,15,06,10,-2.70
2011,11,15,06,11,-2.60
2011,11,15,06,12,-2.60
2011,11,15,06,13,-2.60
2011,11,15,06,14,-2.60
2011,11,15,06,15,-2.60
2011,11,15,06,16,-2.60
2011,11,15,06,17,-2.60
2011,11,15,06,18,-2.60
2011,11,15,06,19,-2.60
2011,11,15,06,20,-2.60
2011,11,15,06,21,-2.60
2011,11,15,06,22,-2.60
2011,11,15,06,23,-2.60
2011,11,15,06,24,-2.60
2011,11,15,06,25,-2.60
2011,11,15,06,26,-2.60
2011,11,15,06,27,-2.60
2011,11,15,06,28,-2.60
2011,11,15,06,29,-2.60
2011,11,15,06,30,-2.60
2011,11,15,06,31,-2.60
2011,11,15,06,32,-2.60
2011,11,15,06,33,-2.60
2011,11,15,06,34,-2.60
2011,11,15,06,35,-2.60
2011,11,15,06,36,-2.60
2011,11,15,06,37,-2.60
2011,11,15,06,38,-2.60
2011,11,15,06,39,-2.60
2011,11,15,06,40,-2.60
2011,11,15,06,41,-2.60
2011,11,15,06,42,-2.60
2011,11,15,06,43,-2.70
2011,11,15,06,44,-2.70
2011,11,15,06,45,-2.70
2011,11,15,06,46,-2.70
2011,11,15,06,47,-2.70
2011,11,15,06,48,-2.70
2011,11,15,06,49,-2.70
2011,11,15,06,50,-2.70
2011,11,15,06,51,-2.70
2011,11,15,06,52,-2.70
2011,11,15,06,53,-2.70
2011,11,15,06,54,-2.70
2011,11,15,06,55,-2.70
2011,11,15,06,56,-2.70
2011,11,15,06,57,-2.70
2011,11,15,06,58,-2.70
2011,11,15,06,59,-2.70
2011,11,15,07,00,-2.80
2011,11,15,07,01,-2.80
2011,11,15,07,02,-2.80
2011,11,15,07,03,-2.80
2011,11,15,07,04,-2.80
2011,11,15,07,05,-2.80
2011,11,15,07,06,-2.80
2011,11,15,07,07,-2.80
2011,11,15,07,08,-2.80
2011,11,15,07,09,-2.80
2011,11,15,07,10,-2.80
2011,11,15,07,11,-2.80
2011,11,15,07,12,-2.80
2011,11,15,07,13,-2.80
2011,11,15,07,14,-2.80
2011,11,15,07,15,-2.80
2011,11,15,07,16,-2.90
2011,11,15,07,17,-2.90
2011,11,15,07,18,-2.90
2011,11,15,07,19,-2.90
2011,11,15,07,20,-3.00
2011,11,15,07,21,-3.00
2011,11,15,07,22,-3.00
2011,11,15,07,23,-3.00
2011,11,15,07,24,-3.00
2011,11,15,07,25,-3.00
2011,11,15,07,26,-3.00
2011,11,15,07,27,-3.00
2011,11,15,07,28,-3.00
2011,11,15,07,29,-2.90
2011,11,15,07,30,-2.90
2011,11,15,07,31,-2.90
2011,11,15,07,32,-2.90
2011,11,15,07,33,-3.00
2011,11,15,07,34,-3.00
2011,11,15,07,35,-3.00
2011,11,15,07,36,-3.00
2011,11,15,07,37,-3.00
2011,11,15,07,38,-3.00
2011,11,15,07,39,-3.00
2011,11,15,07,40,-3.00
2011,11,15,07,41,-3.00
2011,11,15,07,42,-3.00
2011,11,15,07,43,-3.00
2011,11,15,07,44,-3.00
2011,11,15,07,45,-3.00
2011,11,15,07,46,-3.00
2011,11,15,07,47,-3.00
2011,11,15,07,48,-2.90
2011,11,15,07,49,-2.90
2011,11,15,07,50,-2.90
2011,11,15,07,51,-2.90
2011,11,15,07,52,-2.90
2011,11,15,07,53,-3.00
2011,11,15,07,54,-3.00
2011,11,15,07,55,-3.00
2011,11,15,07,56,-3.00
2011,11,15,07,57,-2.90
2011,11,15,07,58,-2.90
2011,11,15,07,59,-2.90
2011,11,15,08,00,-2.90
2011,11,15,08,01,-2.80
2011,11,15,08,02,-2.80
2011,11,15,08,03,-2.80
2011,11,15,08,04,-2.80
2011,11,15,08,05,-2.80
2011,11,15,08,06,-2.70
2011,11,15,08,07,-2.70
2011,11,15,08,08,-2.70
2011,11,15,08,09,-2.70
2011,11,15,08,10,-2.70
2011,11,15,08,11,-2.70
2011,11,15,08,12,-2.70
2011,11,15,08,13,-2.70
2011,11,15,08,14,-2.70
2011,11,15,08,15,-2.70
2011,11,15,08,16,-2.70
2011,11,15,08,17,-2.70
2011,11,15,08,18,-2.70
2011,11,15,08,19,-2.70
2011,11,15,08,20,-2.70
2011,11,15,08,21,-2.70
2011,11,15,08,22,-2.70
2011,11,15,08,23,-2.60
2011,11,15,08,24,-2.60
2011,11,15,08,25,-2.60
2011,11,15,08,26,-2.60
2011,11,15,08,27,-2.60
2011,11,15,08,28,-2.50
2011,11,15,08,29,-2.50
2011,11,15,08,30,-2.40
2011,11,15,08,31,-2.30
2011,11,15,08,32,-2.30
2011,11,15,08,33,-2.10
2011,11,15,08,34,-2.10
2011,11,15,08,35,-2.00
2011,11,15,08,36,-1.90
2011,11,15,08,37,-1.80
2011,11,15,08,38,-1.70
2011,11,15,08,39,-1.70
2011,11,15,08,40,-1.60
2011,11,15,08,41,-1.50
2011,11,15,08,42,-1.40
2011,11,15,08,43,-1.30
2011,11,15,08,44,-1.20
2011,11,15,08,45,-1.10
2011,11,15,08,46,-0.90
2011,11,15,08,47,-0.70
2011,11,15,08,48,-0.60
2011,11,15,08,49,-0.40
2011,11,15,08,50,-0.20
2011,11,15,08,51,0.00
2011,11,15,08,52,0.10
2011,11,15,08,53,0.20
2011,11,15,08,54,0.30
2011,11,15,08,55,0.30
2011,11,15,08,56,0.40
2011,11,15,08,57,0.30
2011,11,15,08,58,0.30
2011,11,15,08,59,0.20
2011,11,15,09,00,0.20
2011,11,15,09,01,0.30
2011,11,15,09,02,0.30
2011,11,15,09,03,0.30
2011,11,15,09,04,0.40
2011,11,15,09,05,0.40
2011,11,15,09,06,0.30
2011,11,15,09,07,0.30
2011,11,15,09,08,0.40
2011,11,15,09,09,0.40
2011,11,15,09,10,0.40
2011,11,15,09,11,0.40
2011,11,15,09,12,0.50
2011,11,15,09,13,0.50
2011,11,15,09,14,0.60
2011,11,15,09,15,0.80
2011,11,15,09,16,0.80
2011,11,15,09,17,0.90
2011,11,15,09,18,1.00
2011,11,15,09,19,1.00
2011,11,15,09,20,1.10
2011,11,15,09,21,1.20
2011,11,15,09,22,1.30
2011,11,15,09,23,1.30
2011,11,15,09,24,1.50
2011,11,15,09,25,1.50
2011,11,15,09,26,1.60
2011,11,15,09,27,1.70
2011,11,15,09,28,1.80
2011,11,15,09,29,1.80
2011,11,15,09,30,1.90
2011,11,15,09,31,2.00
2011,11,15,09,32,2.00
2011,11,15,09,33,2.10
2011,11,15,09,34,2.20
2011,11,15,09,35,2.20
2011,11,15,09,36,2.20
2011,11,15,09,37,2.20
2011,11,15,09,38,2.30
2011,11,15,09,39,2.30
2011,11,15,09,40,2.40
2011,11,15,09,41,2.40
2011,11,15,09,42,2.50
2011,11,15,09,43,2.60
2011,11,15,09,44,2.60
2011,11,15,09,45,2.70
2011,11,15,09,46,2.70
2011,11,15,09,47,2.80
2011,11,15,09,48,2.80
2011,11,15,09,49,2.90
2011,11,15,09,50,2.90
2011,11,15,09,51,3.00
2011,11,15,09,52,3.10
2011,11,15,09,53,3.20
2011,11,15,09,54,3.20
2011,11,15,09,55,3.30
2011,11,15,09,56,3.30
2011,11,15,09,57,3.40
2011,11,15,09,58,3.50
2011,11,15,09,59,3.50
2011,11,15,10,00,3.50
2011,11,15,10,01,3.60
2011,11,15,10,02,3.70
2011,11,15,10,03,3.70
2011,11,15,10,04,3.80
2011,11,15,10,05,3.90
2011,11,15,10,06,3.90
2011,11,15,10,07,3.90
2011,11,15,10,08,4.00
2011,11,15,10,09,4.00
2011,11,15,10,10,4.10
2011,11,15,10,11,4.10
2011,11,15,10,12,4.20
2011,11,15,10,13,4.20
2011,11,15,10,14,4.20
2011,11,15,10,15,4.20
2011,11,15,10,16,4.30
2011,11,15,10,17,4.30
2011,11,15,10,18,4.40
2011,11,15,10,19,4.40
2011,11,15,10,20,4.50
2011,11,15,10,21,4.60
2011,11,15,10,22,4.60
2011,11,15,10,23,4.70
2011,11,15,10,24,4.80
2011,11,15,10,25,4.90
2011,11,15,10,26,4.90
2011,11,15,10,27,5.00
2011,11,15,10,28,5.10
2011,11,15,10,29,5.10
2011,11,15,10,30,5.20
2011,11,15,10,31,5.20
2011,11,15,10,32,5.30
2011,11,15,10,33,5.30
2011,11,15,10,34,5.30
2011,11,15,10,35,5.30
2011,11,15,10,36,5.30
2011,11,15,10,37,5.40
2011,11,15,10,38,5.50
2011,11,15,10,39,5.50
2011,11,15,10,40,5.60
2011,11,15,10,41,5.70
2011,11,15,10,42,5.70
2011,11,15,10,43,5.80
2011,11,15,10,44,5.90
2011,11,15,10,45,5.90
2011,11,15,10,46,6.00
2011,11,15,10,47,6.10
2011,11,15,10,48,6.20
2011,11,15,10,49,6.30
2011,11,15,10,50,6.40
2011,11,15,10,51,6.50
2011,11,15,10,52,6.60
2011,11,15,10,53,6.70
2011,11,15,10,54,6.80
2011,11,15,10,55,6.80
2011,11,15,10,56,6.90
2011,11,15,10,57,7.00
2011,11,15,10,58,7.10
2011,11,15,10,59,7.20
2011,11,15,11,00,7.30
2011,11,15,11,01,7.40
2011,11,15,11,02,7.50
2011,11,15,11,03,7.60
2011,11,15,11,04,7.70
2011,11,15,11,05,7.80
2011,11,15,11,06,7.80
2011,11,15,11,07,7.80
2011,11,15,11,08,7.80
2011,11,15,11,09,7.90
2011,11,15,11,10,7.90
2011,11,15,11,11,8.00
2011,11,15,11,12,8.00
2011,11,15,11,13,8.10
2011,11,15,11,14,8.20
2011,11,15,11,15,8.20
2011,11,15,11,16,8.30
2011,11,15,11,17,8.30
2011,11,15,11,18,8.40
2011,11,15,11,19,8.40
2011,11,15,11,20,8.40
2011,11,15,11,21,8.50
2011,11,15,11,22,8.50
2011,11,15,11,23,8.50
2011,11,15,11,24,8.40
2011,11,15,11,25,8.40
2011,11,15,11,26,8.40
2011,11,15,11,27,8.40
2011,11,15,11,28,8.30
2011,11,15,11,29,8.30
2011,11,15,11,30,8.30
2011,11,15,11,31,8.40
2011,11,15,11,32,8.40
2011,11,15,11,33,8.30
2011,11,15,11,34,8.40
2011,11,15,11,35,8.40
2011,11,15,11,36,8.40
2011,11,15,11,37,8.30
2011,11,15,11,38,8.30
2011,11,15,11,39,8.20
2011,11,15,11,40,8.20
2011,11,15,11,41,8.20
2011,11,15,11,42,8.20
2011,11,15,11,43,8.20
2011,11,15,11,44,8.20
2011,11,15,11,45,8.20
2011,11,15,11,46,8.20
2011,11,15,11,47,8.20
2011,11,15,11,48,8.20
2011,11,15,11,49,8.20
2011,11,15,11,50,8.20
2011,11,15,11,51,8.20
2011,11,15,11,52,8.20
2011,11,15,11,53,8.20
2011,11,15,11,54,8.20
2011,11,15,11,55,8.20
2011,11,15,11,56,8.10
2011,11,15,11,57,8.00
2011,11,15,11,58,8.00
2011,11,15,11,59,8.10
2011,11,15,12,00,8.10
2011,11,15,12,01,8.10
2011,11,15,12,02,8.20
2011,11,15,12,03,8.20
2011,11,15,12,04,8.30
2011,11,15,12,05,8.30
2011,11,15,12,06,8.30
2011,11,15,12,07,8.30
2011,11,15,12,08,8.30
2011,11,15,12,09,8.30
2011,11,15,12,10,8.30
2011,11,15,12,11,8.30
2011,11,15,12,12,8.30
2011,11,15,12,13,8.30
2011,11,15,12,14,8.30
2011,11,15,12,15,8.30
2011,11,15,12,16,8.30
2011,11,15,12,17,8.40
2011,11,15,12,18,8.50
2011,11,15,12,19,8.60
2011,11,15,12,20,8.60
2011,11,15,12,21,8.70
2011,11,15,12,22,8.70
2011,11,15,12,23,8.70
2011,11,15,12,24,8.80
2011,11,15,12,25,8.80
2011,11,15,12,26,8.70
2011,11,15,12,27,8.70
2011,11,15,12,28,8.70
2011,11,15,12,29,8.70
2011,11,15,12,30,8.70
2011,11,15,12,31,8.70
2011,11,15,12,32,8.70
2011,11,15,12,33,8.60
2011,11,15,12,34,8.60
2011,11,15,12,35,8.60
2011,11,15,12,36,8.60
2011,11,15,12,37,8.60
2011,11,15,12,38,8.60
2011,11,15,12,39,8.60
2011,11,15,12,40,8.50
2011,11,15,12,41,8.50
2011,11,15,12,42,8.50
2011,11,15,12,43,8.50
2011,11,15,12,44,8.50
2011,11,15,12,45,8.50
2011,11,15,12,46,8.60
2011,11,15,12,47,8.70
2011,11,15,12,48,8.70
2011,11,15,12,49,8.80
2011,11,15,12,50,8.90
2011,11,15,12,51,8.90
2011,11,15,12,52,8.90
2011,11,15,12,53,8.90
2011,11,15,12,54,9.00
2011,11,15,12,55,9.10
2011,11,15,12,56,9.00
2011,11,15,12,57,9.00
2011,11,15,12,58,9.00
2011,11,15,12,59,8.90
2011,11,15,13,00,8.80
2011,11,15,13,01,8.70
2011,11,15,13,02,8.70
2011,11,15,13,03,8.60
2011,11,15,13,04,8.60
2011,11,15,13,05,8.60
2011,11,15,13,06,8.50
2011,11,15,13,07,8.50
2011,11,15,13,08,8.50
2011,11,15,13,09,8.50
2011,11,15,13,10,8.50
2011,11,15,13,11,8.50
2011,11,15,13,12,8.60
2011,11,15,13,13,8.70
2011,11,15,13,14,8.70
2011,11,15,13,15,8.70
2011,11,15,13,16,8.70
2011,11,15,13,17,8.70
2011,11,15,13,18,8.70
2011,11,15,13,19,8.70
2011,11,15,13,20,8.70
2011,11,15,13,21,8.60
2011,11,15,13,22,8.60
2011,11,15,13,23,8.60
2011,11,15,13,24,8.60
2011,11,15,13,25,8.60
2011,11,15,13,26,8.60
2011,11,15,13,27,8.60
2011,11,15,13,28,8.60
2011,11,15,13,29,8.50
2011,11,15,13,30,8.50
2011,11,15,13,31,8.40
2011,11,15,13,32,8.40
2011,11,15,13,33,8.40
2011,11,15,13,34,8.30
2011,11,15,13,35,8.30
2011,11,15,13,36,8.30
2011,11,15,13,37,8.30
2011,11,15,13,38,8.30
2011,11,15,13,39,8.30
2011,11,15,13,40,8.30
2011,11,15,13,41,8.30
2011,11,15,13,42,8.30
2011,11,15,13,43,8.30
2011,11,15,13,44,8.30
2011,11,15,13,45,8.40
2011,11,15,13,46,8.40
2011,11,15,13,47,8.40
2011,11,15,13,48,8.30
2011,11,15,13,49,8.30
2011,11,15,13,50,8.20
2011,11,15,13,51,8.20
2011,11,15,13,52,8.20
2011,11,15,13,53,8.20
2011,11,15,13,54,8.20
2011,11,15,13,55,8.30
2011,11,15,13,56,8.30
2011,11,15,13,57,8.30
2011,11,15,13,58,8.20
2011,11,15,13,59,8.20
2011,11,15,14,00,8.20
2011,11,15,14,01,8.20
2011,11,15,14,02,8.20
2011,11,15,14,03,8.20
2011,11,15,14,04,8.20
2011,11,15,14,05,8.20
2011,11,15,14,06,8.20
2011,11,15,14,07,8.20
2011,11,15,14,08,8.30
2011,11,15,14,09,8.30
2011,11,15,14,10,8.30
2011,11,15,14,11,8.20
2011,11,15,14,12,8.20
2011,11,15,14,13,8.20
2011,11,15,14,14,8.10
2011,11,15,14,15,8.00
2011,11,15,14,16,7.90
2011,11,15,14,17,7.80
2011,11,15,14,18,7.80
2011,11,15,14,19,7.70
2011,11,15,14,20,7.70
2011,11,15,14,21,7.60
2011,11,15,14,22,7.60
2011,11,15,14,23,7.50
2011,11,15,14,24,7.50
2011,11,15,14,25,7.40
2011,11,15,14,26,7.40
2011,11,15,14,27,7.40
2011,11,15,14,28,7.40
2011,11,15,14,29,7.40
2011,11,15,14,30,7.40
2011,11,15,14,31,7.50
2011,11,15,14,32,7.50
2011,11,15,14,33,7.60
2011,11,15,14,34,7.60
2011,11,15,14,35,7.70
2011,11,15,14,36,7.80
2011,11,15,14,37,7.90
2011,11,15,14,38,8.00
2011,11,15,14,39,8.00
2011,11,15,14,40,8.00
2011,11,15,14,41,8.10
2011,11,15,14,42,8.10
2011,11,15,14,43,8.10
2011,11,15,14,44,8.10
2011,11,15,14,45,8.10
2011,11,15,14,46,8.10
2011,11,15,14,47,8.10
2011,11,15,14,48,8.20
2011,11,15,14,49,8.20
2011,11,15,14,50,8.20
2011,11,15,14,51,8.20
2011,11,15,14,52,8.20
2011,11,15,14,53,8.20
2011,11,15,14,54,8.20
2011,11,15,14,55,8.20
2011,11,15,14,56,8.20
2011,11,15,14,57,8.20
2011,11,15,14,58,8.20
2011,11,15,14,59,8.20
2011,11,15,15,00,8.20
2011,11,15,15,01,8.20
2011,11,15,15,02,8.20
2011,11,15,15,03,8.20
2011,11,15,15,04,8.20
2011,11,15,15,05,8.10
2011,11,15,15,06,8.10
2011,11,15,15,07,8.10
2011,11,15,15,08,8.00
2011,11,15,15,09,8.00
2011,11,15,15,10,8.00
2011,11,15,15,11,8.00
2011,11,15,15,12,8.00
2011,11,15,15,13,8.00
2011,11,15,15,14,8.00
2011,11,15,15,15,8.00
2011,11,15,15,16,8.00
2011,11,15,15,17,7.90
2011,11,15,15,18,7.90
2011,11,15,15,19,7.80
2011,11,15,15,20,7.80
2011,11,15,15,21,7.80
2011,11,15,15,22,7.80
2011,11,15,15,23,7.80
2011,11,15,15,24,7.80
2011,11,15,15,25,7.80
2011,11,15,15,26,7.90
2011,11,15,15,27,7.90
2011,11,15,15,28,7.90
2011,11,15,15,29,7.80
2011,11,15,15,30,7.80
2011,11,15,15,31,7.80
2011,11,15,15,32,7.80
2011,11,15,15,33,7.70
2011,11,15,15,34,7.60
2011,11,15,15,35,7.60
2011,11,15,15,36,7.60
2011,11,15,15,37,7.60
2011,11,15,15,38,7.50
2011,11,15,15,39,7.50
2011,11,15,15,40,7.50
2011,11,15,15,41,7.40
2011,11,15,15,42,7.40
2011,11,15,15,43,7.40
2011,11,15,15,44,7.30
2011,11,15,15,45,7.30
2011,11,15,15,46,7.30
2011,11,15,15,47,7.30
2011,11,15,15,48,7.30
2011,11,15,15,49,7.30
2011,11,15,15,50,7.30
2011,11,15,15,51,7.30
2011,11,15,15,52,7.20
2011,11,15,15,53,7.20
2011,11,15,15,54,7.10
2011,11,15,15,55,7.10
2011,11,15,15,56,7.00
2011,11,15,15,57,7.00
2011,11,15,15,58,7.00
2011,11,15,15,59,6.90
2011,11,15,16,00,6.90
2011,11,15,16,01,6.90
2011,11,15,16,02,6.80
2011,11,15,16,03,6.80
2011,11,15,16,04,6.80
2011,11,15,16,05,6.80
2011,11,15,16,06,6.70
2011,11,15,16,07,6.70
2011,11,15,16,08,6.60
2011,11,15,16,09,6.60
2011,11,15,16,10,6.60
2011,11,15,16,11,6.50
2011,11,15,16,12,6.40
2011,11,15,16,13,6.30
2011,11,15,16,14,6.20
2011,11,15,16,15,6.20
2011,11,15,16,16,6.10
2011,11,15,16,17,6.00
2011,11,15,16,18,6.00
2011,11,15,16,19,5.90
2011,11,15,16,20,5.90
2011,11,15,16,21,5.80
2011,11,15,16,22,5.70
2011,11,15,16,23,5.70
2011,11,15,16,24,5.60
2011,11,15,16,25,5.60
2011,11,15,16,26,5.50
2011,11,15,16,27,5.50
2011,11,15,16,28,5.40
2011,11,15,16,29,5.30
2011,11,15,16,30,5.30
2011,11,15,16,31,5.30
2011,11,15,16,32,5.20
2011,11,15,16,33,5.20
2011,11,15,16,34,5.10
2011,11,15,16,35,5.10
2011,11,15,16,36,5.10
2011,11,15,16,37,5.00
2011,11,15,16,38,4.90
2011,11,15,16,39,4.90
2011,11,15,16,40,4.90
2011,11,15,16,41,4.90
2011,11,15,16,42,4.80
2011,11,15,16,43,4.80
2011,11,15,16,44,4.70
2011,11,15,16,45,4.70
2011,11,15,16,46,4.60
2011,11,15,16,47,4.60
2011,11,15,16,48,4.60
2011,11,15,16,49,4.50
2011,11,15,16,50,4.50
2011,11,15,16,51,4.40
2011,11,15,16,52,4.40
2011,11,15,16,53,4.30
2011,11,15,16,54,4.30
2011,11,15,16,55,4.20
2011,11,15,16,56,4.20
2011,11,15,16,57,4.20
2011,11,15,16,58,4.10
2011,11,15,16,59,4.00
2011,11,15,17,00,4.00
2011,11,15,17,01,3.90
2011,11,15,17,02,3.90
2011,11,15,17,03,3.80
2011,11,15,17,04,3.80
2011,11,15,17,05,3.70
2011,11,15,17,06,3.70
2011,11,15,17,07,3.60
2011,11,15,17,08,3.50
2011,11,15,17,09,3.50
2011,11,15,17,10,3.40
2011,11,15,17,11,3.30
2011,11,15,17,12,3.30
2011,11,15,17,13,3.30
2011,11,15,17,14,3.20
2011,11,15,17,15,3.20
2011,11,15,17,16,3.10
2011,11,15,17,17,3.10
2011,11,15,17,18,3.10
2011,11,15,17,19,3.00
2011,11,15,17,20,2.90
2011,11,15,17,21,2.90
2011,11,15,17,22,2.90
2011,11,15,17,23,2.90
2011,11,15,17,24,2.80
2011,11,15,17,25,2.80
2011,11,15,17,26,2.70
2011,11,15,17,27,2.70
2011,11,15,17,28,2.70
2011,11,15,17,29,2.70
2011,11,15,17,30,2.60
2011,11,15,17,31,2.60
2011,11,15,17,32,2.50
2011,11,15,17,33,2.50
2011,11,15,17,34,2.50
2011,11,15,17,35,2.40
2011,11,15,17,36,2.40
2011,11,15,17,37,2.30
2011,11,15,17,38,2.30
2011,11,15,17,39,2.20
2011,11,15,17,40,2.20
2011,11,15,17,41,2.20
2011,11,15,17,42,2.10